Orbital Elements at Epoch 2459200.5 (2020-Dec-17.0) TDB
Reference: JPL 19 (heliocentric ecliptic J2000)
Element | Value | Uncertainty (1-sigma) | Units |
e | .03289209015274747 | 5.4989e-08 | |
a | 3.207931496972461 | 3.0348e-08 | au |
q | 3.102415924970205 | 1.8504e-07 | au |
i | 15.26976774862414 | 4.5413e-06 | deg |
node | 160.63783662624 | 1.9377e-05 | deg |
peri | 223.2813533671952 | 7.5936e-05 | deg |
M | 267.5276916026296 | 7.668e-05 | deg |
tp | 2459739.570112101018 (2022-Jun-09.07011210) | 0.00044965 | TDB |
period | 2098.630862792272 5.75 | 2.9781e-05 8.154e-08 | d yr |
n | .1715404106470694 | 2.4343e-09 | deg/d |
Q | 3.313447068974717 | 3.1347e-08 | au |
|
| | Orbit Determination Parameters
Additional Information
|